{"data":{"norad_id":36799,"epoch":"2026-05-25T02:44:54.019104Z","epoch_age_seconds":61570,"freshness":"FRESH","line1":"1 36799U 10035E   26145.11451411  .00019122  00000+0  64646-3 0  9992","line2":"2 36799  98.0696  89.6355 0002197  31.2848 328.8521 15.30693269864174","mean_motion":15.30693269,"eccentricity":0.0002197,"inclination_deg":98.0696,"raan_deg":89.6355,"arg_perigee_deg":31.2848,"mean_anomaly_deg":328.8521,"bstar":0.00064646,"rev_number":86417,"period_min":94.07502006857,"perigee_km":472.23729466609,"apogee_km":475.24801058545,"semimajor_km":6851.8796526258,"source":"CELESTRAK","updated_at":"2026-05-25T13:38:25.489442Z"}}